Wind_Speed
9 9 5 1 4 3 4 4 3 2 3 2 3 3 3 6 4 3 3 13 26 31 27 31 31 29 28 26 27 29 29 27 25 23 24 25 24 21 19 17 15 14 14 14 15 17 18 18 16
3 4 1 2 4 7 5 3 7 2 5 10 4 4 1 1 3 6 15 15 28 32 29 26 30 29 28 27 26 26 27 25 24 22 24 24 22 20 18 15 14 13 13 13 13 13 14 15 14
2 2 2 3 4 11 5 5 3 7 10 3 1 3 0 3 3 11 10 26 28 30 28 27 29 28 27 26 25 24 24 24 22 22 23 22 21 18 15 14 13 13 13 13 12 12 12 13 11
4 3 2 6 13 8 4 7 2 7 3 4 7 4 5 3 1 7 23 30 31 28 26 29 28 26 25 24 23 23 22 21 21 22 22 21 18 15 14 13 12 12 12 12 12 11 10 9 9
3 1 6 7 17 3 7 6 1 6 5 10 7 1 3 4 4 15 26 28 31 27 25 27 27 26 25 22 21 21 20 20 20 21 21 19 16 14 13 11 10 11 11 11 12 11 9 8 7
4 2 8 18 16 8 6 5 4 5 5 7 4 3 4 1 7 17 22 26 28 30 26 26 27 25 24 23 21 20 20 19 19 19 19 17 15 13 11 9 9 9 9 9 10 11 9 8 7
10 8 19 13 21 11 7 6 7 5 6 4 6 3 4 7 10 17 19 21 24 27 25 23 23 24 22 21 20 20 19 19 18 17 16 16 14 12 9 7 7 8 9 9 9 8 8 8 8
4 6 15 13 15 17 7 7 3 1 1 2 5 2 3 6 13 18 20 20 21 22 24 22 21 20 20 21 20 19 18 17 17 16 15 15 14 12 9 8 8 8 8 8 8 8 7 7 7
3 8 15 19 18 11 6 9 3 1 1 4 4 3 6 13 16 20 22 22 21 20 21 21 20 18 19 18 20 19 18 17 16 16 16 15 12 11 10 9 7 6 7 8 8 8 8 8 7
11 14 16 5 7 13 8 3 1 2 2 3 5 7 10 12 14 19 21 23 25 23 21 21 20 19 18 17 19 19 19 18 17 17 17 14 14 13 12 10 9 8 7 7 7 8 8 7 6
9 17 10 8 9 6 8 9 2 1 2 2 5 9 10 12 12 14 17 19 24 25 23 22 21 20 21 20 19 18 18 18 18 18 18 16 14 14 14 14 13 11 10 7 7 7 7 7 7
10 13 12 10 10 10 5 3 8 6 3 3 10 11 10 12 12 14 16 18 21 22 23 23 21 20 19 19 19 18 18 18 17 16 17 16 15 16 16 14 14 12 9 9 10 8 9 10 10
17 7 15 13 9 8 5 10 5 4 7 8 13 10 10 10 12 14 17 18 19 19 19 22 22 21 19 20 18 17 17 17 15 16 19 18 17 17 16 16 13 12 11 10 9 8 9 9 9
15 15 10 16 10 7 11 6 4 7 7 8 14 13 11 11 13 13 15 19 21 21 20 20 21 22 21 18 19 19 20 19 20 20 20 21 19 18 18 18 17 16 14 12 11 10 10 10 11
7 15 18 10 18 12 6 12 11 6 10 10 10 11 11 12 13 13 15 17 20 22 23 25 24 25 24 23 24 23 20 20 23 23 22 23 22 21 20 17 17 15 13 13 12 13 12 12 11
13 8 12 18 12 8 16 20 15 12 10 12 11 10 11 13 15 14 13 12 14 16 22 25 26 27 29 30 30 29 25 22 23 22 22 23 23 21 19 18 18 16 14 11 11 10 11 13 13
18 15 17 8 22 7 16 9 13 16 16 13 11 10 10 11 12 16 17 16 15 15 16 19 21 24 28 29 30 31 28 25 24 21 18 18 19 19 19 17 16 17 16 15 12 12 12 14 14
17 20 16 14 9 24 17 9 8 15 19 15 12 11 9 10 12 13 15 17 18 18 18 16 17 17 17 16 18 18 18 19 21 19 20 19 19 18 18 18 18 17 18 18 13 13 13 15 16
13 18 13 17 9 17 18 15 10 13 14 16 12 11 11 12 9 8 10 15 17 20 23 21 19 19 17 14 14 17 6 10 12 16 19 17 17 18 17 19 18 18 20 19 13 11 16 14 17
13 17 15 9 13 10 16 18 17 14 13 14 16 15 15 14 11 10 12 13 15 18 25 25 22 20 19 16 13 7 2 5 14 16 20 19 20 19 21 23 22 20 21 20 17 11 12 17 22
7 16 14 13 15 4 12 11 18 14 11 10 15 14 14 14 14 11 11 16 14 17 21 24 26 23 20 17 14 10 7 5 8 12 11 13 14 17 20 21 24 22 20 20 15 16 15 16 15
9 7 13 13 17 7 8 6 9 14 14 14 14 16 16 16 15 14 12 15 18 23 19 18 19 20 20 18 11 9 12 13 7 3 1 6 9 13 14 15 16 20 18 17 20 19 18 20 18
12 10 7 12 13 8 9 4 4 5 12 14 15 19 20 18 18 18 17 20 20 18 17 11 13 13 13 14 14 13 11 11 6 3 5 7 9 7 6 10 13 19 20 20 22 22 18 18 18
11 11 5 6 6 8 11 9 6 8 11 10 13 16 18 18 20 20 25 25 23 20 14 8 3 6 10 12 13 15 15 11 6 2 2 5 4 2 5 5 6 10 15 19 21 21 21 22 27
17 16 7 7 7 4 10 8 3 8 7 9 9 12 15 15 18 19 19 21 25 20 10 4 5 6 8 11 10 9 9 8 7 6 8 10 8 10 9 7 7 6 7 11 13 15 19 21 26
24 22 7 8 8 8 7 8 3 5 3 6 10 13 13 14 14 16 15 19 23 15 2 9 9 11 12 12 12 12 12 12 13 12 11 13 13 11 11 13 13 11 10 7 9 13 15 18 23
19 17 5 7 5 9 5 2 4 7 7 6 10 7 5 11 10 10 9 9 8 10 11 16 17 18 19 22 24 22 21 17 16 13 11 14 14 11 12 13 12 11 11 12 10 7 6 7 9
20 14 6 3 9 8 7 6 6 4 7 11 9 5 7 6 7 9 9 13 16 18 21 23 25 26 23 24 23 23 21 17 17 17 19 17 13 12 12 11 11 11 11 10 7 6 5 4 4
18 14 2 5 1 4 7 4 1 3 8 10 3 9 10 12 13 15 15 23 26 27 28 28 30 24 21 18 24 26 21 20 20 20 16 14 12 13 11 12 11 11 11 11 10 9 9 10 9
18 16 4 4 4 3 3 4 2 6 7 2 9 12 17 18 18 18 20 27 28 27 25 24 25 23 17 16 25 21 20 20 19 20 14 13 13 12 13 13 13 13 12 12 12 12 11 10 9
Wind_Direction
292 327 332 216 222 247 220 227 301 249 163 20 259 200 291 320 296 344 65 146 148 148 153 159 160 156 154 153 159 160 161 159 156 152 148 146 145 144 140 137 136 137 135 135 132 130 131 129 125
273 339 80 123 233 209 208 240 228 330 318 311 188 189 251 2 86 117 131 151 153 149 152 156 160 156 151 153 155 161 165 163 158 155 150 148 147 145 141 137 136 137 139 141 138 133 134 132 130
146 66 235 218 210 218 212 193 236 316 321 306 254 195 347 85 95 158 151 151 153 151 153 157 161 156 152 151 153 158 162 163 161 157 153 152 150 149 147 142 140 141 145 149 147 143 140 140 138
151 139 119 228 220 220 229 155 332 342 357 48 341 307 104 4 20 163 152 151 152 153 152 159 161 157 153 150 148 151 157 161 160 157 156 154 153 153 151 147 144 146 151 155 158 154 153 155 155
82 150 214 226 233 229 223 191 247 331 321 317 317 85 80 23 52 140 151 154 152 150 151 156 163 160 155 152 147 148 151 155 159 159 158 156 158 159 157 155 152 153 158 160 163 166 169 175 182
145 189 210 221 222 214 239 216 285 299 309 310 350 312 79 16 112 139 150 155 156 152 152 156 165 163 160 157 153 151 152 155 161 163 163 164 164 163 164 164 163 163 162 168 171 175 182 191 202
209 193 219 228 231 213 206 247 250 277 288 316 346 322 93 78 120 139 142 150 156 153 150 152 158 164 163 161 158 156 155 159 163 166 169 169 168 168 170 171 169 174 174 179 180 187 190 199 210
177 216 212 221 218 229 207 201 181 293 345 33 343 69 107 122 130 137 131 140 147 151 152 152 154 158 159 166 168 162 160 160 164 171 175 177 179 179 181 184 185 188 191 195 198 202 207 212 223
158 215 220 216 213 210 182 189 171 46 70 65 29 35 105 137 142 140 137 143 145 152 154 156 157 160 161 162 171 170 168 169 171 176 184 186 185 192 199 201 204 205 207 212 215 222 227 236 245
197 218 216 222 198 211 195 213 85 201 65 117 101 103 131 141 157 153 156 157 158 157 160 160 161 164 162 165 170 175 178 181 182 183 186 189 197 200 204 209 212 219 226 235 236 242 249 259 263
197 224 197 200 193 204 202 219 310 266 233 219 193 149 149 145 161 164 163 168 164 160 162 167 167 173 171 176 178 182 183 188 193 194 194 197 200 207 213 216 216 218 226 239 250 258 259 257 269
209 219 206 205 207 211 201 198 230 243 233 143 150 146 150 152 160 166 166 169 168 170 170 168 170 173 178 182 184 190 189 192 194 199 202 205 208 216 221 225 228 228 231 239 250 256 265 277 277
210 187 207 203 187 193 212 231 221 194 146 142 146 145 149 153 158 161 163 168 170 176 173 175 174 177 184 185 188 192 195 196 198 203 209 215 217 221 226 232 232 233 242 249 254 257 270 281 285
193 206 194 216 207 215 219 228 223 200 155 148 167 163 159 156 159 155 168 169 177 180 180 180 183 182 183 190 195 198 200 201 205 214 218 221 225 229 230 234 236 238 239 242 248 257 265 274 278
155 189 215 200 213 216 210 234 211 221 174 171 184 183 178 172 167 175 177 178 181 185 186 190 190 191 192 196 201 203 208 206 210 215 219 225 227 229 230 235 238 240 242 245 253 262 271 276 276
176 178 193 209 176 192 195 238 199 213 180 187 181 180 190 197 189 182 184 189 195 193 194 195 196 198 199 201 200 205 210 221 223 226 217 224 229 231 232 235 239 245 246 253 264 268 268 270 276
192 202 201 174 202 163 198 227 208 201 204 191 192 191 192 197 217 218 214 207 201 205 203 206 206 207 205 210 211 213 202 210 227 231 234 229 236 237 238 242 247 250 252 256 263 276 278 274 280
185 194 194 190 168 202 198 217 179 187 191 200 193 202 211 213 218 212 216 211 214 215 216 216 216 217 216 217 220 232 214 209 225 238 250 241 242 242 242 246 249 246 251 255 254 275 282 274 282
166 185 165 197 150 179 203 199 161 179 197 194 210 214 220 231 237 210 205 210 214 214 219 220 219 219 213 211 219 223 193 227 243 250 257 243 238 236 241 239 241 241 249 250 250 274 282 289 290
177 171 186 169 178 203 190 206 209 202 204 215 220 222 224 231 244 233 212 207 204 212 218 221 222 216 213 219 221 211 215 288 265 261 252 251 248 238 241 240 240 242 244 250 251 246 259 277 278
173 181 161 151 168 149 155 196 219 230 234 223 226 227 221 226 235 237 229 220 213 213 215 220 221 216 216 221 237 254 262 230 234 229 240 249 246 248 251 253 252 248 248 248 253 238 242 242 267
169 188 179 137 154 176 210 197 213 217 209 217 218 220 233 231 235 246 234 234 229 230 215 220 219 214 211 226 228 222 228 226 218 175 235 275 266 255 252 256 264 254 244 251 248 246 257 250 262
181 166 140 171 171 156 169 205 154 180 220 224 220 220 221 220 220 225 233 235 241 248 239 218 206 209 207 208 202 199 204 207 199 250 277 276 295 291 277 261 254 257 263 262 256 261 252 255 263
171 152 72 100 154 203 172 199 184 174 205 223 230 230 228 228 231 233 234 238 242 243 248 239 206 208 195 180 187 193 206 220 215 215 99 66 52 341 316 297 276 262 262 260 262 258 262 276 270
174 162 140 164 186 178 172 188 171 192 225 241 256 238 225 230 234 232 233 239 243 247 256 225 158 137 168 169 159 170 183 183 149 132 106 99 84 56 40 33 19 347 290 267 266 267 271 267 262
185 177 169 164 178 143 160 200 140 165 230 244 269 275 257 243 231 229 230 233 239 245 197 116 124 122 134 131 118 121 119 117 106 97 99 93 87 77 68 64 57 48 35 14 329 310 294 263 254
181 198 145 107 101 143 165 163 234 223 245 286 315 296 223 206 210 204 203 215 207 154 123 121 120 112 109 103 99 97 100 93 89 84 84 72 59 45 40 39 37 32 27 24 19 8 335 294 274
182 152 170 149 152 154 173 161 126 206 316 336 352 21 68 99 103 88 85 89 93 97 99 102 100 94 95 98 100 95 89 93 88 75 62 59 52 38 28 25 29 26 19 15 9 356 337 330 321
170 192 139 105 2 136 143 162 111 309 308 314 12 95 101 102 94 87 85 84 86 86 91 92 89 97 94 96 92 88 82 73 65 59 52 48 40 34 24 20 17 20 12 5 2 353 345 336 324
179 187 176 137 152 63 90 126 70 291 302 218 108 103 98 93 93 93 92 96 94 93 95 99 98 98 98 92 85 81 78 75 65 49 40 32 26 16 8 1 357 357 353 349 347 345 346 344 336
Height
779 779 778 778 788 788 788 778 767 765 761 752 751 753 758 757 760 772 756 761 764 769 776 781 785 789 792 795 798 800 803 805 808 809 811 813 816 818 820 822 824 825 826 827 827 827 827 827 828
777 778 778 778 790 795 782 774 771 763 757 750 749 750 754 758 752 757 758 761 767 769 776 782 786 790 793 797 800 803 805 808 809 812 813 815 818 821 822 823 824 826 828 829 830 830 830 830 830
776 777 777 779 787 785 779 771 765 758 750 751 748 746 749 756 753 756 755 760 767 771 777 782 787 792 795 799 802 805 808 809 811 813 815 817 820 822 824 824 825 826 828 829 831 831 831 832 833
775 778 781 784 781 777 770 766 764 758 748 749 749 752 749 753 753 754 757 760 767 774 779 784 790 794 798 800 803 806 810 812 813 814 817 819 823 825 826 826 825 826 828 829 830 832 833 834 834
774 776 781 785 775 773 767 762 761 759 756 752 751 754 752 754 753 754 758 763 768 776 782 786 791 794 798 802 804 806 810 813 815 817 818 820 823 825 826 827 827 827 829 830 830 832 833 834 835
774 774 782 779 774 772 763 759 760 757 754 750 751 752 755 757 757 758 762 765 771 774 781 785 790 795 798 801 804 807 809 812 815 818 819 821 823 825 827 827 828 829 830 831 831 831 831 833 835
767 771 770 774 770 770 766 755 759 757 755 751 747 755 757 758 759 761 764 768 773 776 781 786 791 795 799 802 805 807 809 812 815 817 820 821 823 825 827 828 829 830 830 831 831 832 831 831 833
766 767 769 771 771 766 759 757 752 756 755 748 749 755 757 761 762 763 766 771 776 780 782 786 791 794 798 802 805 808 811 813 814 817 819 821 823 823 826 827 827 828 829 830 831 831 832 831 832
768 770 765 765 771 763 756 757 752 751 753 753 755 757 759 762 764 765 767 772 776 781 783 786 791 794 798 801 804 807 809 812 813 815 817 819 822 823 825 826 828 829 830 830 830 831 830 831 832
761 764 761 761 762 761 756 755 755 756 755 758 759 759 760 763 764 763 765 768 771 777 781 784 788 792 797 801 803 806 808 811 812 813 815 818 820 822 824 825 826 828 829 830 831 830 830 830 831
758 757 757 762 758 757 759 758 753 757 759 754 756 759 760 761 764 764 765 769 770 773 778 782 786 790 793 797 800 803 805 808 811 812 813 816 818 820 822 823 823 824 826 829 830 830 830 829 829
762 756 755 755 756 757 762 757 756 755 753 750 753 757 759 759 762 763 765 768 771 774 777 779 783 788 791 795 797 801 804 806 809 811 813 816 817 819 821 822 823 824 826 826 827 828 828 827 826
755 757 755 752 754 756 757 758 756 755 753 753 756 758 759 760 762 762 765 768 771 775 777 779 781 784 788 790 794 798 801 804 808 809 811 813 814 816 818 820 822 823 824 825 825 826 827 826 825
747 752 755 753 754 756 760 761 760 752 753 756 756 758 759 760 761 763 765 765 769 772 775 777 780 780 784 788 791 794 797 800 802 806 808 810 811 812 814 817 819 820 820 821 822 823 824 823 822
752 757 756 756 755 756 758 764 763 750 752 755 757 757 759 760 762 762 764 765 766 768 771 773 776 777 778 781 785 789 793 795 797 799 802 805 807 808 811 814 816 817 818 818 819 820 821 821 820
750 752 759 748 756 754 757 752 753 751 753 755 755 757 759 759 759 762 763 765 767 768 767 770 772 773 773 774 776 781 786 792 794 798 797 801 804 807 809 811 812 815 815 817 818 818 819 819 818
743 742 749 751 748 752 756 758 752 748 751 753 753 754 755 757 759 759 761 763 764 766 768 769 771 771 771 774 776 777 774 782 791 794 798 799 804 806 808 809 810 812 813 814 814 816 816 817 816
733 739 746 745 751 751 756 754 751 747 749 751 752 752 752 752 752 756 758 760 762 764 766 768 769 770 773 775 777 783 779 778 785 791 795 798 802 804 804 806 807 807 809 808 809 811 813 814 813
733 737 744 745 746 752 755 756 752 750 751 750 751 753 752 750 748 753 755 757 759 761 763 765 766 769 773 775 777 783 775 782 785 789 794 795 798 800 799 801 802 802 804 802 801 805 809 810 810
730 733 739 743 743 746 756 757 748 746 751 750 750 751 751 750 748 749 752 753 754 756 758 761 763 766 770 773 775 774 776 774 782 787 791 793 796 796 797 798 798 797 798 797 797 795 802 803 808
734 729 732 733 744 747 753 759 754 749 750 749 746 744 746 747 746 745 746 748 751 752 753 755 757 761 764 767 769 770 773 777 784 786 786 789 791 792 793 794 795 792 792 793 794 795 795 799 802
740 732 730 735 739 754 747 755 753 744 746 747 745 747 745 744 744 743 742 742 743 744 749 751 753 756 758 761 765 769 774 778 782 783 784 787 788 790 788 788 789 791 789 788 790 792 791 794 793
732 732 731 731 734 741 753 755 742 748 746 742 740 737 737 736 738 737 736 737 738 738 741 747 752 755 758 758 763 769 774 777 776 781 783 784 783 784 784 786 785 786 785 784 787 789 787 787 789
723 735 737 737 737 750 741 740 745 740 733 729 727 728 729 731 733 733 734 735 736 737 740 743 747 752 755 758 762 765 769 774 776 778 776 776 780 780 781 781 781 779 780 780 781 781 779 783 783
726 735 745 751 747 744 742 744 732 730 726 725 724 722 722 723 726 728 731 733 735 738 744 746 747 751 756 759 760 765 769 773 773 775 775 775 779 779 781 779 775 776 778 779 777 776 776 774 780
717 716 718 736 742 739 747 743 729 722 720 720 719 718 718 719 719 722 726 730 732 738 745 747 752 754 757 759 761 765 768 772 776 778 777 775 775 778 779 775 775 776 774 771 770 769 769 771 773
718 721 713 729 730 732 738 736 726 723 721 719 716 716 713 714 715 720 724 728 733 739 743 744 752 758 762 762 763 768 770 775 778 780 781 776 775 777 776 774 772 773 773 771 770 769 769 769 768
700 709 724 718 739 741 742 735 725 724 720 717 717 716 718 721 725 730 735 737 740 743 747 752 757 761 768 768 771 773 773 779 779 777 774 776 778 778 777 778 775 773 772 771 771 770 769 766 763
705 711 716 716 720 727 741 732 725 727 724 724 724 726 731 732 738 741 743 745 748 754 757 762 763 771 775 776 770 772 778 778 777 776 780 781 781 780 781 778 776 772 771 770 768 767 766 764 761
695 704 708 711 731 730 723 734 727 727 724 724 728 734 736 740 745 747 748 752 757 763 767 769 772 775 780 780 773 778 780 778 780 777 785 784 782 781 780 777 776 773 772 770 768 766 763 761 760